Location: Waco, TX
(31.5480°N, 97.1670°W)
Time: 22:58:41
(UTC-05:00)

ISS - Pass Details

Date: 25 April 2018
Orbit: 403 x 406 km, 51.6° (Epoch: 23 April)

Event Time Altitude Azimuth Distance (km) Brightness Sun altitude
Rises 16:07:15 0° 310° (NW) 2,321 0.3 49.0°
Reaches altitude 10° 16:09:22 10° 306° (NW) 1,459 -0.5 48.6°
Maximum altitude 16:12:34 53° 228° (SW) 501 -1.5 47.9°
Drops below altitude 10° 16:15:45 10° 150° (SSE) 1,452 -1.0 47.3°
Sets 16:17:50 0° 145° (SE) 2,309 -0.1 46.8°
